FW0373 Weather Reports


time (UTC)temp
C
wind
direction
speed
KPH
gust
KPH
rain 1hr
cm
rain 24hr
cm
rain mn
cm
humidity
%
barometer
mb
20260502113405 12 0.0 0.0 0.00 0.00 0.00 80 1008.8
20260502112406 12 0.0 0.0 0.00 0.00 0.00 79 1008.8
20260502105418 12 0.0 0.0 0.00 0.00 0.00 78 1008.7
20260502104420 12 0.0 0.0 0.00 0.00 0.00 76 1008.7
20260502103407 13 0.0 0.0 0.00 0.00 0.00 76 1008.8
20260502102407 13 0.0 0.0 0.00 0.00 0.00 75 1008.8
20260502100409 13 0.0 0.0 0.00 0.00 0.00 74 1008.9
20260502090408 14 0.0 0.0 0.00 0.00 0.00 73 1009.0
20260502071403 15 0.0 0.0 0.00 0.00 0.00 67 1009.5
20260502070403 15 0.0 0.0 0.00 0.00 0.00 67 1009.5
20260502065405 15 0.0 0.0 0.00 0.00 0.00 68 1009.4
20260502064404 15 0.0 0.0 0.00 0.00 0.00 68 1009.5
20260502063404 16 0.0 0.0 0.00 0.00 0.00 67 1009.5
20260502062406 16 0.0 0.0 0.00 0.00 0.00 66 1009.6
20260502061429 16 0.0 0.0 0.00 0.00 0.00 66 1009.7
20260502060406 16 0.0 0.0 0.00 0.00 0.00 63 1009.5
20260502055403 16 0.0 0.0 0.00 0.00 0.00 62 1009.6
20260502054406 17 0.0 0.0 0.00 0.00 0.00 61 1009.4
20260502053405 17 0.0 0.0 0.00 0.00 0.00 61 1009.6
20260502051406 17 0.0 0.0 0.00 0.00 0.00 59 1009.7
20260502050404 17 0.0 0.0 0.00 0.00 0.00 60 1009.6
20260502045534 17 0.0 0.0 0.00 0.00 0.00 60 1009.6
20260502044407 17 0.0 0.0 0.00 0.00 0.00 59 1009.3
20260502043429 18 0.0 0.0 0.00 0.00 0.00 58 1009.2
20260502042403 18 0.0 0.0 0.00 0.00 0.00 58 1009.3
20260502041404 18 0.0 0.0 0.00 0.00 0.00 56 1009.2
20260502040403 19 0.0 0.0 0.00 0.00 0.00 55 1008.9
20260502035403 19 0.0 0.0 0.00 0.00 0.00 53 1008.9
20260502034405 20 0.0 0.0 0.00 0.00 0.00 52 1008.8
20260502033406 21 0.0 0.0 0.00 0.00 0.00 50 1008.7
20260502032404 21 0.0 0.0 0.00 0.00 0.00 49 1008.5
20260502031406 22 0.0 0.0 0.00 0.00 0.00 46 1008.5
20260501201408 30 202 4.8 11.3 0.00 0.00 0.00 30 1008.9
20260501160406 23 0 6.4 14.5 0.00 0.00 0.00 44 1010.8